Location: Unspecified
(47.2500°N, 0.0000°E)
Time: 11:32:02
(UTC+00:00)

Tiangong 2 - Visible Passes

Search period start: 23 May 2019 00:00
Search period end: 02 June 2019 00:00
Orbit: 379 x 387 km, 42.8° (Epoch: 23 May)

Date Brightness Start Highest point End Pass type
(mag) Time Alt. Az. Time Alt. Az. Time Alt. Az.
23 May 1.7 21:10:07 10° WSW 21:13:01 35° S 21:14:11 25° SE visible
24 May 2.1 21:46:38 10° WSW 21:49:05 30° SSW 21:49:05 30° SSW visible
25 May 1.8 20:46:39 10° WSW 20:49:32 35° S 20:51:42 15° ESE visible
25 May 3.6 22:23:29 10° WSW 22:23:53 12° WSW 22:23:53 12° WSW visible
26 May 2.3 21:23:17 10° WSW 21:25:55 25° SSW 21:26:27 24° S visible
27 May 2.1 20:23:12 10° WSW 20:26:02 31° S 20:28:51 10° SE visible
27 May 3.5 22:00:33 10° WSW 22:01:09 12° SW 22:01:09 12° SW visible
28 May 2.8 21:00:01 10° WSW 21:02:20 19° SSW 21:03:41 15° SSE visible
30 May 3.4 20:37:01 10° WSW 20:38:41 14° SSW 20:40:23 10° S visible
